Tacoma, WA

10:52 AM PDT on March 29, 2017 (GMT -0700)
McChord Air Force Base

Weather History for KTCM - November, 2013

Change the Weather History Date:

Tuesday, November 12, 2013

  Actual Average Record
Temperature  
Mean Temperature 50 °F -  
Max Temperature 59 °F 51 °F 60 °F (1996)
Min Temperature 42 °F 35 °F 12 °F (1955)
Degree Days  
Heating Degree Days 14    
Moisture  
Dew Point 49 °F    
Average Humidity 95    
Maximum Humidity 100    
Minimum Humidity 77    
Precipitation  
Precipitation 0.16 in - - ()
Sea Level Pressure  
Sea Level Pressure 30.24 in    
Wind  
Wind Speed 4 mph (SSW)    
Max Wind Speed 12 mph    
Max Gust Speed 20 mph    
Visibility 10 miles    
Events Rain    
Averages and records for this station are not official NWS values.
T = Trace of Precipitation, MM = Missing Value Source: NWS Daily Summary

Daily Weather History Graph

Daily Weather History Graph

Search for Another Location

Airport or City:

Trip Planner

Search our weather history database for the weather conditions in past years. The results will help you decide how hot, cold, wet, or windy it might be!

Date:

Astronomy

Nov. 12, 2013 Rise Set
Actual Time 7:09 AM PST 4:37 PM PST
Civil Twilight 6:36 AM PST 5:10 PM PST
Nautical Twilight 5:59 AM PST 5:47 PM PST
Astronomical Twilight 5:24 AM PST 6:23 PM PST
Moon 2:11 PM PST (11/12) 1:46 AM PST (11/12)
Length of Visible Light 10h 34m
Length of Day
9h 28m
Waxing Gibbous, 77% of the Moon is Illuminated
Nov 12
Waxing Gibbous
Nov 17
Full
Nov 25
Last Quarter
Dec 2
New
Dec 9
First Quarter

Hourly Weather History & Observations

Time (PST) Temp. Windchill Dew Point Humidity Pressure Visibility Wind Dir Wind Speed Gust Speed Precip Events Conditions
12:58 AM 42.8 °F 40.1 °F 42.8 °F 100% 30.08 in 10.0 mi Variable 4.6 mph - N/A   Mostly Cloudy
1:58 AM 44.2 °F - 44.1 °F 99% 30.08 in 10.0 mi SSW 2.3 mph - N/A   Clear
2:58 AM 43.7 °F - 43.7 °F 100% 30.10 in 10.0 mi Calm Calm - N/A   Clear
3:25 AM 44.6 °F - 44.6 °F 100% 30.08 in 10.0 mi West 2.3 mph - N/A Rain Light Rain
3:58 AM 45.5 °F - 45.5 °F 100% 30.12 in 10.0 mi SE 1.2 mph - 0.01 in Rain Light Rain
4:58 AM 45.5 °F - 45.5 °F 100% 30.12 in 9.0 mi Variable 2.3 mph - 0.03 in Rain Light Rain
5:58 AM 46.2 °F - 46.2 °F 100% 30.15 in 10.0 mi WSW 2.3 mph - 0.05 in Rain Light Rain
6:46 AM 46.4 °F - 46.4 °F 100% 30.14 in 10.0 mi WNW 2.3 mph - N/A   Overcast
6:53 AM 46.4 °F - 46.4 °F 100% 30.14 in 10.0 mi Calm Calm - N/A Rain Light Rain
6:58 AM 46.6 °F - 46.6 °F 100% 30.16 in 10.0 mi Calm Calm - 0.03 in Rain Light Rain
7:13 AM 46.4 °F - 46.4 °F 100% 30.14 in 10.0 mi Calm Calm - N/A   Overcast
7:30 AM 46.4 °F - 46.4 °F 100% 30.16 in 10.0 mi Calm Calm - N/A Rain Light Rain
7:37 AM 46.4 °F - 46.4 °F 100% 30.16 in 6.0 mi WNW 1.2 mph - N/A Rain Light Rain
7:58 AM 47.3 °F - 47.3 °F 100% 30.21 in 3.0 mi NW 1.2 mph - 0.02 in Rain Light Rain
8:18 AM 48.2 °F - 48.2 °F 100% 30.19 in 8.0 mi Calm Calm - N/A   Overcast
8:58 AM 48.6 °F - 48.6 °F 100% 30.22 in 10.0 mi Calm Calm - 0.02 in   Overcast
9:58 AM 50.5 °F - 50.2 °F 99% 30.25 in 10.0 mi SSW 4.6 mph - N/A   Overcast
10:58 AM 53.6 °F - 53.2 °F 99% 30.27 in 10.0 mi SSW 5.8 mph - N/A   Overcast
11:58 AM 58.8 °F - 55.8 °F 90% 30.28 in 10.0 mi South 11.5 mph 18.4 mph N/A   Mostly Cloudy
12:08 PM 59.0 °F - 55.4 °F 88% 30.26 in 10.0 mi South 9.2 mph - N/A   Mostly Cloudy
12:58 PM 59.0 °F - 53.6 °F 82% 30.29 in 10.0 mi South 9.2 mph 19.6 mph N/A   Overcast
1:58 PM 58.5 °F - 52.5 °F 81% 30.31 in 10.0 mi SW 10.4 mph - N/A   Overcast
2:13 PM 59.0 °F - 51.8 °F 77% 30.29 in 10.0 mi SSW 9.2 mph - N/A   Overcast
2:58 PM 58.8 °F - 52.0 °F 78% 30.31 in 10.0 mi SSW 10.4 mph - N/A   Overcast
3:58 PM 57.6 °F - 52.2 °F 82% 30.32 in 10.0 mi South 8.1 mph - N/A   Overcast
4:58 PM 55.0 °F - 52.2 °F 90% 30.33 in 10.0 mi SSW 8.1 mph - N/A   Scattered Clouds
5:58 PM 54.1 °F - 52.7 °F 95% 30.34 in 10.0 mi SSW 9.2 mph - N/A   Overcast
6:58 PM 54.5 °F - 52.3 °F 92% 30.35 in 10.0 mi SSW 8.1 mph - N/A   Overcast
7:58 PM 52.9 °F - 52.2 °F 97% 30.36 in 10.0 mi SW 9.2 mph - N/A   Mostly Cloudy
8:58 PM 50.9 °F - 50.7 °F 99% 30.38 in 10.0 mi SSW 6.9 mph - N/A   Clear
9:58 PM 48.0 °F - 47.8 °F 99% 30.39 in 10.0 mi SSW 4.6 mph - N/A   Clear
10:58 PM 51.3 °F - 50.9 °F 99% 30.40 in 10.0 mi South 9.2 mph - N/A   Mostly Cloudy
11:58 PM 50.2 °F - 50.0 °F 99% 30.40 in 10.0 mi South 8.1 mph - N/A   Overcast